Weather History for Norwood, MA

Change the Weather History Date:

Saturday, August 16, 2014

  Actual Average Record
Temperature  
Mean Temperature 66 °F -  
Max Temperature 77 °F 79 °F 93 °F (2002)
Min Temperature 57 °F 58 °F 37 °F (1996)
Cooling Degree Days 1    
Growing Degree Days 16 (Base 50)    
Moisture  
Dew Point 53 °F    
Average Humidity 62    
Maximum Humidity 84    
Minimum Humidity 43    
Precipitation  
Precipitation 0.00 in - - ()
Sea Level Pressure  
Sea Level Pressure 29.94 in    
Wind  
Wind Speed 7 mph (SW)    
Max Wind Speed 15 mph    
Max Gust Speed 23 mph    
Visibility 10 miles    
Events      
Averages and records for this station are not official NWS values.
T = Trace of Precipitation, MM = Missing Value Source: NWS Daily Summary

Daily Weather History Graph

Daily Weather History Graph

Search for Another Location

Airport:

Trip Planner

Search our weather history database for the weather conditions in past years. The results will help you decide how hot, cold, wet, or windy it might be!

Date:

Astronomy

Aug. 16, 2014 Rise Set
Actual Time 5:53 AM EDT 7:43 PM EDT
Civil Twilight 5:23 AM EDT 8:13 PM EDT
Nautical Twilight 4:46 AM EDT 8:50 PM EDT
Astronomical Twilight 4:06 AM EDT 9:29 PM EDT
Moon 11:17 PM EDT (8/16) 12:44 PM EDT (8/16)
Length of Visible Light 14h 50m
Length of Day
13h 50m
Waning Gibbous, 59% of the Moon is Illuminated
Aug 16
Waning Gibbous
Aug 17
Last Quarter
Aug 25
New
Sep 2
First Quarter
Sep 8
Full

Hourly Weather History & Observations

Time (EDT) Temp. Dew Point Humidity Pressure Visibility Wind Dir Wind Speed Gust Speed Precip Events Conditions
1:53 AM 60.1 °F 53.1 °F 78% 29.93 in 10.0 mi WSW 5.8 mph - N/A   Clear
2:53 AM 57.9 °F 53.1 °F 84% 29.94 in 10.0 mi WSW 5.8 mph - N/A   Clear
3:53 AM 59.0 °F 53.1 °F 81% 29.94 in 10.0 mi SW 4.6 mph - N/A   Overcast
4:53 AM 57.9 °F 53.1 °F 84% 29.94 in 10.0 mi SW 5.8 mph - N/A   Overcast
5:53 AM 57.9 °F 52.0 °F 81% 29.95 in 10.0 mi WSW 5.8 mph - N/A   Partly Cloudy
6:53 AM 59.0 °F 53.1 °F 81% 29.96 in 10.0 mi WSW 5.8 mph - N/A   Clear
7:53 AM 62.1 °F 53.1 °F 72% 29.97 in 10.0 mi WSW 8.1 mph - N/A   Clear
8:53 AM 66.0 °F 54.0 °F 65% 29.97 in 10.0 mi WSW 5.8 mph - N/A   Clear
9:53 AM 70.0 °F 54.0 °F 57% 29.98 in 10.0 mi West 12.7 mph - N/A   Clear
10:53 AM 71.1 °F 54.0 °F 55% 29.99 in 10.0 mi SW 9.2 mph - N/A   Clear
11:53 AM 73.0 °F 51.1 °F 46% 29.97 in 10.0 mi WSW 15.0 mph 23.0 mph N/A   Clear
12:53 PM 73.9 °F 51.1 °F 45% 29.96 in 10.0 mi SSW 8.1 mph - N/A   Partly Cloudy
1:53 PM 75.9 °F 52.0 °F 43% 29.94 in 10.0 mi WSW 11.5 mph 19.6 mph N/A   Partly Cloudy
2:53 PM 75.9 °F 52.0 °F 43% 29.93 in 10.0 mi SW 10.4 mph - N/A   Mostly Cloudy
3:53 PM 75.9 °F 52.0 °F 43% 29.92 in 10.0 mi SSW 11.5 mph 18.4 mph N/A   Scattered Clouds
4:53 PM 75.0 °F 52.0 °F 44% 29.93 in 10.0 mi WSW 11.5 mph - N/A   Partly Cloudy
5:53 PM 73.9 °F 50.0 °F 43% 29.92 in 10.0 mi SW 9.2 mph - N/A   Clear
6:53 PM 72.0 °F 50.0 °F 46% 29.92 in 10.0 mi SSW 4.6 mph - N/A   Clear
7:53 PM 68.0 °F 51.1 °F 55% 29.93 in 10.0 mi South 4.6 mph - N/A   Clear
8:53 PM 68.0 °F 54.0 °F 61% 29.94 in 10.0 mi SSW 4.6 mph - N/A   Clear
9:53 PM 64.9 °F 55.0 °F 70% 29.93 in 10.0 mi SSW 4.6 mph - N/A   Clear
10:53 PM 64.0 °F 55.9 °F 75% 29.92 in 10.0 mi SSE 3.5 mph - N/A   Clear
11:53 PM 63.0 °F 57.0 °F 81% 29.92 in 10.0 mi SSE 3.5 mph - N/A   Clear